Tracking 18793 objects as of 25-September-2017
HD Live streaming from Space Station
objects crossing your sky now

COSMOS 1546

Track COSMOS 1546 now!
COSMOS 1546 is classified as:


NORAD ID: 14867
Int'l Code: 1984-031A
Perigee: 35,685.1 km
Apogee: 35,906.7 km
Inclination: 14.0 °
Period: 1,436.2 minutes
Semi major axis: 42166 km
RCS: 0.14 m2 (medium)
Launch date: March 29, 1984
Source: Commonwealth of Independent States (former USSR) (CIS)
Launch site: TYURATAM MISSILE AND SPACE COMPLEX (TTMTR)
aabbcc
Your satellite tracking list
Your tracking list is empty





NASA's NSSDC Master Catalog

Two Line Element Set (TLE):
1 14867U 84031A   17267.71855017 -.00000164  00000-0  00000+0 0  9990
2 14867  14.0247 340.2053 0026283 291.8715  70.5592  1.00264059 85960
Source of the keplerian elements: AFSPC